QPF
0.00 0.00 0.00 0.00 0.00 0.00 0.00 0.00 0.00 0.00 0.00 0.00 0.00 0.00 0.00 0.00 0.00 0.00 0.00 0.00 0.00 0.00 0.00 0.00 0.00 0.00 0.00 0.00 0.00 0.00 0.00 0.00 0.00 0.00 0.00 0.00 0.00 0.00 0.00 0.00 0.00 0.00 0.00 0.00 0.00 0.00 0.00 0.00 0.01 0.02 0.03 0.00 0.00 0.00
0.00 0.00 0.00 0.00 0.00 0.00 0.00 0.00 0.00 0.00 0.00 0.00 0.00 0.00 0.00 0.00 0.00 0.00 0.00 0.00 0.00 0.00 0.00 0.00 0.00 0.00 0.00 0.00 0.00 0.00 0.00 0.00 0.00 0.00 0.00 0.00 0.00 0.00 0.00 0.00 0.00 0.00 0.00 0.00 0.00 0.00 0.00 0.00 0.00 0.00 0.00 0.00 0.00 0.00
0.00 0.00 0.00 0.00 0.00 0.00 0.00 0.00 0.00 0.00 0.00 0.00 0.00 0.00 0.00 0.00 0.00 0.00 0.00 0.00 0.00 0.00 0.00 0.00 0.00 0.00 0.00 0.00 0.00 0.00 0.00 0.00 0.00 0.00 0.00 0.00 0.00 0.00 0.00 0.00 0.00 0.00 0.00 0.00 0.00 0.00 0.00 0.00 0.00 0.00 0.00 0.00 0.00 0.00
0.00 0.00 0.00 0.00 0.01 0.00 0.00 0.00 0.00 0.00 0.00 0.00 0.00 0.00 0.00 0.00 0.00 0.00 0.00 0.00 0.00 0.00 0.00 0.00 0.00 0.00 0.00 0.00 0.00 0.00 0.00 0.00 0.00 0.00 0.00 0.00 0.00 0.00 0.00 0.00 0.00 0.00 0.00 0.00 0.00 0.00 0.00 0.00 0.00 0.00 0.00 0.00 0.00 0.00
0.00 0.00 0.00 0.00 0.00 0.00 0.00 0.00 0.00 0.00 0.00 0.00 0.00 0.00 0.00 0.00 0.00 0.00 0.00 0.00 0.00 0.00 0.00 0.00 0.00 0.00 0.00 0.00 0.00 0.00 0.00 0.00 0.00 0.00 0.00 0.00 0.00 0.00 0.00 0.00 0.00 0.00 0.00 0.00 0.00 0.00 0.00 0.00 0.00 0.00 0.00 0.00 0.00 0.00
0.00 0.00 0.00 0.00 0.00 0.00 0.00 0.00 0.00 0.00 0.00 0.00 0.00 0.00 0.00 0.00 0.00 0.00 0.00 0.00 0.00 0.00 0.00 0.00 0.00 0.00 0.00 0.00 0.00 0.00 0.00 0.00 0.00 0.00 0.00 0.00 0.00 0.00 0.00 0.00 0.00 0.00 0.00 0.00 0.00 0.00 0.00 0.00 0.00 0.00 0.00 0.00 0.00 0.00
0.00 0.00 0.00 0.00 0.00 0.00 0.00 0.00 0.00 0.00 0.00 0.00 0.00 0.00 0.00 0.00 0.00 0.00 0.00 0.00 0.00 0.00 0.00 0.00 0.00 0.00 0.00 0.00 0.00 0.00 0.00 0.00 0.00 0.00 0.00 0.00 0.00 0.00 0.00 0.00 0.00 0.00 0.00 0.00 0.00 0.00 0.00 0.00 0.00 0.00 0.00 0.00 0.00 0.00
0.00 0.00 0.00 0.00 0.00 0.00 0.00 0.00 0.00 0.00 0.00 0.00 0.00 0.00 0.00 0.00 0.00 0.00 0.00 0.00 0.00 0.00 0.00 0.00 0.00 0.00 0.00 0.00 0.00 0.00 0.00 0.00 0.00 0.00 0.00 0.00 0.00 0.00 0.00 0.00 0.00 0.00 0.00 0.00 0.00 0.00 0.00 0.00 0.00 0.00 0.00 0.00 0.00 0.00
0.00 0.00 0.00 0.00 0.00 0.00 0.00 0.00 0.00 0.00 0.00 0.00 0.00 0.00 0.00 0.00 0.00 0.00 0.00 0.00 0.00 0.00 0.00 0.00 0.00 0.00 0.00 0.00 0.00 0.00 0.00 0.00 0.00 0.00 0.00 0.00 0.00 0.00 0.00 0.00 0.00 0.00 0.00 0.00 0.00 0.00 0.00 0.00 0.00 0.00 0.00 0.00 0.00 0.00
0.00 0.00 0.00 0.00 0.00 0.00 0.00 0.00 0.00 0.00 0.00 0.00 0.00 0.00 0.00 0.00 0.00 0.00 0.00 0.00 0.00 0.00 0.00 0.00 0.00 0.00 0.00 0.00 0.00 0.00 0.00 0.00 0.00 0.00 0.00 0.00 0.00 0.00 0.00 0.00 0.00 0.00 0.00 0.00 0.00 0.00 0.00 0.00 0.00 0.00 0.00 0.00 0.00 0.00
0.00 0.00 0.00 0.00 0.00 0.00 0.00 0.00 0.00 0.00 0.00 0.00 0.00 0.00 0.00 0.00 0.00 0.00 0.00 0.00 0.00 0.00 0.00 0.00 0.00 0.00 0.00 0.00 0.00 0.00 0.00 0.00 0.00 0.00 0.00 0.00 0.00 0.00 0.00 0.00 0.00 0.00 0.00 0.00 0.00 0.00 0.00 0.00 0.00 0.00 0.00 0.00 0.00 0.00
0.00 0.00 0.00 0.00 0.00 0.00 0.00 0.00 0.00 0.00 0.00 0.00 0.00 0.00 0.00 0.00 0.00 0.00 0.00 0.00 0.00 0.01 0.00 0.00 0.00 0.00 0.00 0.00 0.00 0.00 0.00 0.00 0.00 0.00 0.00 0.00 0.00 0.00 0.00 0.00 0.00 0.00 0.00 0.00 0.00 0.00 0.00 0.00 0.00 0.00 0.00 0.00 0.00 0.00
0.00 0.00 0.00 0.00 0.00 0.00 0.00 0.00 0.00 0.00 0.00 0.00 0.00 0.00 0.00 0.00 0.00 0.00 0.00 0.01 0.01 0.00 0.00 0.00 0.00 0.00 0.00 0.00 0.00 0.00 0.00 0.00 0.00 0.00 0.00 0.00 0.00 0.00 0.00 0.00 0.00 0.00 0.00 0.00 0.00 0.00 0.00 0.00 0.00 0.00 0.00 0.00 0.00 0.00
0.00 0.00 0.00 0.00 0.00 0.00 0.00 0.00 0.01 0.01 0.00 0.00 0.00 0.00 0.00 0.00 0.00 0.00 0.00 0.00 0.00 0.00 0.00 0.00 0.00 0.00 0.00 0.00 0.00 0.00 0.00 0.00 0.00 0.00 0.00 0.00 0.00 0.00 0.00 0.00 0.00 0.00 0.00 0.00 0.00 0.00 0.00 0.00 0.00 0.00 0.00 0.00 0.00 0.00
0.00 0.00 0.00 0.00 0.00 0.00 0.00 0.01 0.03 0.02 0.00 0.00 0.00 0.00 0.00 0.00 0.00 0.00 0.00 0.00 0.00 0.00 0.00 0.00 0.00 0.00 0.00 0.00 0.00 0.00 0.00 0.00 0.00 0.00 0.00 0.00 0.00 0.00 0.00 0.00 0.00 0.00 0.00 0.00 0.00 0.00 0.00 0.00 0.00 0.00 0.00 0.00 0.00 0.00
0.01 0.02 0.01 0.00 0.00 0.00 0.02 0.04 0.05 0.00 0.00 0.00 0.00 0.00 0.00 0.00 0.00 0.00 0.00 0.00 0.00 0.00 0.00 0.00 0.00 0.01 0.00 0.00 0.00 0.00 0.00 0.00 0.00 0.00 0.00 0.00 0.00 0.00 0.00 0.00 0.00 0.00 0.00 0.00 0.00 0.00 0.00 0.00 0.00 0.00 0.00 0.00 0.00 0.00
0.02 0.01 0.00 0.00 0.00 0.02 0.05 0.02 0.01 0.01 0.00 0.00 0.00 0.00 0.00 0.00 0.00 0.00 0.00 0.00 0.00 0.00 0.00 0.00 0.00 0.00 0.00 0.00 0.00 0.00 0.00 0.00 0.00 0.00 0.00 0.00 0.00 0.00 0.00 0.00 0.00 0.00 0.00 0.00 0.00 0.00 0.00 0.00 0.00 0.00 0.00 0.00 0.00 0.00
0.00 0.00 0.00 0.02 0.03 0.05 0.05 0.01 0.02 0.00 0.00 0.00 0.00 0.00 0.00 0.00 0.00 0.00 0.00 0.00 0.00 0.00 0.00 0.00 0.00 0.00 0.00 0.00 0.00 0.00 0.00 0.00 0.00 0.00 0.00 0.00 0.00 0.00 0.00 0.00 0.00 0.00 0.00 0.00 0.00 0.00 0.00 0.00 0.00 0.00 0.00 0.00 0.00 0.00
0.00 0.00 0.02 0.04 0.02 0.01 0.02 0.01 0.01 0.00 0.00 0.00 0.00 0.00 0.00 0.00 0.00 0.00 0.00 0.00 0.00 0.00 0.00 0.00 0.00 0.00 0.00 0.00 0.00 0.00 0.00 0.00 0.00 0.00 0.00 0.00 0.00 0.00 0.00 0.00 0.00 0.00 0.00 0.00 0.00 0.00 0.00 0.00 0.00 0.00 0.00 0.00 0.00 0.00
0.01 0.02 0.04 0.03 0.02 0.01 0.00 0.00 0.00 0.00 0.00 0.00 0.00 0.00 0.00 0.00 0.00 0.00 0.00 0.00 0.00 0.00 0.00 0.00 0.00 0.00 0.00 0.00 0.00 0.00 0.00 0.00 0.00 0.00 0.00 0.00 0.00 0.00 0.00 0.00 0.00 0.00 0.00 0.00 0.00 0.00 0.00 0.00 0.00 0.00 0.00 0.00 0.00 0.00
0.04 0.04 0.04 0.01 0.01 0.00 0.00 0.00 0.00 0.00 0.00 0.00 0.00 0.00 0.00 0.00 0.00 0.00 0.00 0.00 0.00 0.00 0.00 0.00 0.00 0.00 0.00 0.00 0.00 0.00 0.00 0.00 0.00 0.00 0.00 0.00 0.00 0.00 0.00 0.00 0.00 0.00 0.00 0.00 0.00 0.00 0.00 0.00 0.00 0.00 0.00 0.00 0.00 0.00
0.01 0.01 0.02 0.00 0.00 0.00 0.00 0.00 0.00 0.00 0.00 0.00 0.00 0.00 0.00 0.00 0.00 0.00 0.00 0.00 0.00 0.00 0.00 0.00 0.00 0.00 0.00 0.00 0.00 0.00 0.00 0.00 0.00 0.00 0.00 0.00 0.00 0.00 0.00 0.00 0.00 0.00 0.00 0.00 0.00 0.00 0.00 0.00 0.00 0.00 0.00 0.00 0.00 0.00
0.00 0.00 0.00 0.00 0.00 0.00 0.00 0.00 0.00 0.00 0.00 0.00 0.00 0.00 0.00 0.00 0.00 0.00 0.00 0.00 0.00 0.00 0.00 0.00 0.00 0.00 0.00 0.00 0.00 0.00 0.00 0.00 0.00 0.00 0.00 0.00 0.00 0.00 0.00 0.00 0.00 0.00 0.00 0.00 0.00 0.00 0.00 0.00 0.00 0.00 0.00 0.00 0.00 0.00
0.00 0.00 0.00 0.00 0.00 0.00 0.00 0.00 0.00 0.00 0.00 0.00 0.00 0.00 0.00 0.00 0.00 0.00 0.00 0.00 0.00 0.00 0.00 0.00 0.00 0.00 0.00 0.00 0.00 0.00 0.00 0.00 0.00 0.00 0.00 0.00 0.00 0.00 0.00 0.00 0.00 0.00 0.00 0.00 0.00 0.00 0.00 0.00 0.00 0.00 0.00 0.00 0.00 0.00
0.00 0.00 0.00 0.00 0.00 0.00 0.00 0.00 0.00 0.00 0.00 0.00 0.00 0.00 0.00 0.00 0.00 0.00 0.00 0.00 0.00 0.00 0.00 0.00 0.00 0.00 0.00 0.00 0.00 0.00 0.00 0.00 0.00 0.00 0.00 0.00 0.00 0.00 0.00 0.00 0.00 0.00 0.00 0.00 0.00 0.00 0.00 0.00 0.00 0.00 0.00 0.00 0.00 0.00
0.00 0.00 0.00 0.00 0.00 0.00 0.00 0.00 0.00 0.00 0.00 0.00 0.00 0.00 0.00 0.00 0.00 0.00 0.00 0.00 0.00 0.00 0.00 0.00 0.00 0.00 0.00 0.00 0.00 0.00 0.00 0.00 0.00 0.00 0.00 0.00 0.00 0.00 0.00 0.00 0.00 0.00 0.00 0.00 0.00 0.00 0.00 0.00 0.00 0.00 0.00 0.00 0.00 0.00
0.00 0.00 0.00 0.00 0.00 0.00 0.00 0.00 0.00 0.00 0.00 0.00 0.00 0.00 0.00 0.00 0.00 0.00 0.00 0.00 0.00 0.00 0.00 0.00 0.00 0.00 0.00 0.00 0.00 0.00 0.00 0.00 0.00 0.00 0.00 0.00 0.00 0.00 0.00 0.00 0.00 0.00 0.00 0.00 0.00 0.00 0.00 0.00 0.00 0.00 0.00 0.00 0.00 0.00
0.00 0.00 0.00 0.00 0.00 0.00 0.00 0.00 0.00 0.00 0.00 0.00 0.00 0.00 0.00 0.00 0.00 0.00 0.00 0.00 0.00 0.00 0.00 0.00 0.00 0.00 0.00 0.00 0.00 0.00 0.00 0.00 0.00 0.00 0.00 0.00 0.00 0.00 0.00 0.00 0.00 0.00 0.00 0.00 0.00 0.00 0.00 0.00 0.00 0.00 0.00 0.00 0.00 0.00
0.00 0.00 0.00 0.00 0.00 0.00 0.00 0.00 0.00 0.00 0.00 0.00 0.00 0.00 0.00 0.00 0.00 0.00 0.00 0.00 0.00 0.00 0.00 0.00 0.00 0.00 0.00 0.00 0.00 0.00 0.00 0.00 0.00 0.00 0.00 0.00 0.00 0.00 0.00 0.00 0.00 0.00 0.00 0.00 0.00 0.00 0.00 0.00 0.00 0.00 0.00 0.00 0.00 0.00
0.00 0.00 0.00 0.00 0.00 0.00 0.00 0.00 0.00 0.00 0.00 0.00 0.00 0.00 0.00 0.00 0.00 0.00 0.00 0.00 0.00 0.00 0.00 0.00 0.00 0.00 0.00 0.00 0.00 0.00 0.00 0.00 0.00 0.00 0.00 0.00 0.00 0.00 0.00 0.00 0.00 0.00 0.00 0.00 0.00 0.00 0.00 0.00 0.00 0.00 0.00 0.00 0.00 0.00
0.00 0.00 0.00 0.00 0.00 0.00 0.00 0.00 0.00 0.00 0.00 0.00 0.00 0.00 0.00 0.00 0.00 0.00 0.00 0.00 0.00 0.00 0.00 0.00 0.00 0.00 0.00 0.00 0.00 0.00 0.00 0.00 0.00 0.00 0.00 0.00 0.00 0.00 0.00 0.00 0.00 0.00 0.00 0.00 0.00 0.00 0.00 0.00 0.00 0.00 0.00 0.00 0.00 0.00
0.00 0.00 0.00 0.00 0.00 0.00 0.00 0.00 0.00 0.00 0.00 0.00 0.00 0.00 0.00 0.00 0.00 0.00 0.00 0.00 0.00 0.00 0.00 0.00 0.00 0.00 0.00 0.00 0.00 0.00 0.00 0.00 0.00 0.00 0.00 0.00 0.00 0.00 0.00 0.00 0.00 0.00 0.00 0.00 0.00 0.00 0.00 0.00 0.00 0.00 0.00 0.00 0.00 0.00
0.00 0.00 0.00 0.00 0.00 0.00 0.00 0.00 0.00 0.00 0.00 0.00 0.00 0.00 0.00 0.00 0.00 0.00 0.00 0.00 0.00 0.00 0.00 0.00 0.00 0.00 0.00 0.00 0.00 0.00 0.00 0.00 0.00 0.00 0.00 0.00 0.00 0.00 0.00 0.00 0.00 0.00 0.00 0.00 0.00 0.00 0.00 0.00 0.00 0.00 0.00 0.00 0.00 0.00
MSLP
1027.41 1027.61 1027.74 1027.82 1027.84 1027.78 1027.77 1027.70 1027.58 1027.45 1027.35 1027.20 1026.95 1026.72 1026.67 1026.67 1026.47 1026.04 1025.21 1025.24 1024.98 1023.38 1021.37 1020.78 1020.87 1019.89 1018.92 1017.28 1015.09 1013.85 1012.89 1011.96 1011.22 1010.68 1010.56 1011.18 1011.60 1012.61 1013.03 1013.57 1013.99 1014.22 1014.71 1015.39 1015.91 1016.25 1017.29 1017.65 1017.46 1017.64 1019.06 1019.79 1020.25 1020.87
1027.23 1027.33 1027.47 1027.57 1027.62 1027.61 1027.58 1027.54 1027.42 1027.31 1027.18 1026.98 1026.76 1026.56 1026.46 1026.48 1026.37 1026.13 1025.00 1025.04 1024.87 1024.23 1021.46 1020.60 1020.15 1019.59 1019.29 1018.30 1017.88 1015.06 1013.43 1012.25 1011.57 1011.07 1011.18 1011.55 1011.93 1012.87 1013.03 1013.57 1014.62 1014.85 1015.15 1015.63 1016.39 1017.01 1017.99 1018.11 1018.39 1018.95 1019.53 1020.23 1020.94 1021.60
1026.95 1027.04 1027.18 1027.32 1027.38 1027.39 1027.36 1027.33 1027.26 1027.14 1026.99 1026.79 1026.59 1026.35 1026.21 1026.26 1026.17 1026.02 1025.08 1024.66 1024.18 1022.82 1020.80 1020.05 1019.01 1018.11 1018.06 1017.72 1017.32 1016.15 1013.78 1013.60 1012.58 1012.55 1011.40 1011.65 1012.01 1012.93 1012.94 1013.44 1014.35 1015.39 1015.77 1015.98 1016.45 1018.26 1018.68 1019.12 1019.51 1020.03 1020.53 1021.11 1021.83 1022.54
1026.66 1026.72 1026.91 1027.04 1027.12 1027.10 1027.13 1027.12 1027.06 1026.94 1026.79 1026.59 1026.34 1026.11 1025.99 1026.00 1025.87 1025.74 1024.85 1024.48 1025.02 1023.93 1022.08 1018.96 1017.99 1017.41 1016.94 1016.56 1016.12 1015.98 1015.09 1014.25 1013.64 1012.65 1011.63 1011.67 1012.28 1013.64 1013.46 1013.69 1013.99 1014.88 1015.45 1016.28 1017.16 1018.63 1019.28 1019.87 1020.41 1021.02 1021.62 1022.23 1022.84 1023.54
1026.37 1026.49 1026.62 1026.76 1026.87 1026.89 1026.91 1026.92 1026.85 1026.71 1026.54 1026.35 1026.11 1025.88 1025.74 1025.70 1025.56 1025.10 1024.46 1024.87 1024.80 1024.68 1022.95 1020.15 1018.58 1016.87 1016.43 1015.72 1015.33 1015.33 1015.20 1014.49 1013.21 1012.19 1011.71 1012.24 1013.12 1013.53 1014.11 1013.95 1014.48 1014.85 1015.32 1015.41 1016.28 1017.96 1018.16 1020.12 1021.08 1021.70 1022.26 1022.98 1023.69 1024.28
1026.07 1026.20 1026.34 1026.50 1026.61 1026.67 1026.71 1026.73 1026.63 1026.45 1026.25 1026.08 1025.88 1025.63 1025.48 1025.45 1025.31 1024.34 1023.83 1024.54 1023.98 1024.61 1023.64 1020.97 1018.17 1016.82 1015.76 1014.95 1014.56 1014.62 1014.40 1014.07 1013.31 1012.14 1012.48 1013.09 1013.76 1013.69 1013.38 1013.73 1014.84 1015.10 1015.30 1015.24 1016.44 1017.91 1019.02 1020.50 1021.44 1022.27 1022.86 1023.62 1024.29 1024.79
1025.79 1025.95 1026.12 1026.26 1026.40 1026.45 1026.50 1026.50 1026.39 1026.20 1025.99 1025.81 1025.58 1025.36 1025.21 1025.18 1024.96 1024.40 1023.88 1023.65 1024.13 1024.50 1023.49 1021.12 1018.45 1016.51 1015.53 1015.10 1014.14 1013.95 1014.01 1013.51 1013.03 1012.69 1012.74 1012.98 1013.55 1013.56 1013.31 1013.65 1014.77 1015.22 1015.45 1016.15 1017.47 1018.46 1019.82 1020.93 1021.77 1022.76 1023.41 1024.23 1024.80 1025.22
1025.51 1025.71 1025.90 1026.07 1026.21 1026.28 1026.29 1026.28 1026.18 1025.99 1025.78 1025.55 1025.28 1025.05 1024.89 1024.75 1024.34 1023.99 1023.28 1023.60 1023.60 1023.43 1022.76 1020.93 1018.56 1016.95 1015.50 1014.76 1013.51 1013.44 1013.06 1013.10 1013.04 1013.05 1013.27 1012.97 1013.74 1013.53 1013.38 1013.99 1014.90 1015.45 1016.08 1017.09 1018.04 1018.72 1019.78 1021.01 1022.21 1023.14 1023.93 1024.43 1024.91 1025.46
1025.22 1025.48 1025.70 1025.88 1026.05 1026.15 1026.15 1026.10 1026.02 1025.83 1025.60 1025.31 1025.01 1024.79 1024.44 1024.17 1023.36 1022.75 1023.37 1023.57 1023.16 1023.39 1022.02 1020.50 1018.79 1017.36 1016.02 1014.80 1013.74 1013.19 1012.92 1012.52 1013.38 1012.87 1013.04 1013.18 1013.13 1012.84 1013.15 1013.94 1014.77 1015.36 1016.07 1017.10 1018.14 1019.28 1020.47 1021.33 1022.28 1023.20 1023.81 1024.36 1024.77 1025.47
1024.92 1025.23 1025.49 1025.70 1025.88 1026.00 1026.00 1025.95 1025.90 1025.71 1025.44 1025.14 1024.81 1024.31 1023.64 1023.20 1023.59 1023.06 1022.35 1022.28 1022.42 1022.07 1021.68 1020.23 1019.00 1017.46 1016.50 1014.66 1013.70 1012.85 1012.64 1012.59 1012.68 1013.54 1013.60 1013.10 1012.62 1013.30 1013.33 1014.05 1014.76 1015.45 1016.20 1017.19 1018.21 1019.56 1020.48 1021.47 1022.31 1023.02 1023.66 1024.39 1024.90 1025.47
1024.63 1024.95 1025.24 1025.47 1025.68 1025.80 1025.83 1025.81 1025.80 1025.64 1025.41 1024.92 1024.46 1023.98 1023.53 1023.58 1023.10 1022.25 1022.03 1021.74 1021.28 1020.91 1020.36 1019.48 1018.78 1017.40 1016.42 1015.12 1013.32 1012.92 1012.44 1012.73 1012.68 1013.44 1013.09 1012.64 1012.45 1012.89 1013.48 1014.31 1015.11 1015.80 1016.82 1017.80 1018.47 1019.52 1020.52 1021.31 1022.09 1022.95 1023.90 1024.53 1024.99 1025.76
1024.33 1024.66 1024.97 1025.25 1025.47 1025.58 1025.63 1025.69 1025.72 1025.49 1024.98 1025.24 1025.15 1024.80 1024.15 1023.15 1022.59 1022.23 1021.55 1021.25 1020.93 1020.10 1019.46 1019.15 1018.61 1017.61 1016.56 1015.57 1013.89 1013.16 1012.59 1013.01 1012.83 1013.37 1012.85 1011.95 1011.60 1012.31 1013.38 1014.39 1015.39 1016.11 1016.98 1017.82 1018.81 1019.75 1020.79 1021.69 1022.47 1023.27 1024.04 1024.55 1025.21 1025.98
1024.01 1024.36 1024.69 1024.96 1025.22 1025.37 1025.47 1025.57 1025.60 1025.54 1025.46 1024.96 1024.78 1024.34 1023.85 1023.24 1022.54 1021.76 1020.78 1020.14 1020.31 1020.65 1020.44 1020.03 1018.70 1017.10 1015.89 1015.11 1013.79 1013.07 1012.77 1013.18 1013.42 1012.87 1011.91 1011.04 1011.16 1012.06 1013.19 1014.43 1015.46 1016.25 1017.10 1018.05 1019.10 1020.12 1021.05 1021.91 1022.75 1023.42 1024.12 1024.80 1025.46 1026.23
1023.69 1024.07 1024.42 1024.73 1024.98 1025.19 1025.36 1025.51 1025.59 1025.72 1025.58 1024.83 1024.44 1023.87 1023.20 1022.37 1021.76 1021.18 1020.90 1020.79 1021.16 1020.85 1020.56 1020.11 1018.64 1016.91 1015.11 1014.17 1013.44 1012.99 1013.52 1013.41 1012.84 1012.00 1010.67 1010.41 1011.04 1011.79 1012.99 1014.26 1015.27 1016.19 1017.20 1018.15 1019.17 1020.25 1021.12 1022.03 1022.88 1023.69 1024.36 1025.08 1025.66 1026.12
1023.37 1023.82 1024.20 1024.52 1024.78 1025.08 1025.26 1025.46 1025.52 1025.58 1025.42 1024.85 1024.45 1023.26 1022.24 1021.61 1021.62 1021.66 1021.18 1020.68 1020.27 1020.26 1020.39 1020.07 1018.69 1017.21 1015.25 1014.35 1013.64 1013.53 1013.55 1012.70 1011.75 1010.44 1010.18 1010.26 1010.84 1011.74 1012.91 1014.08 1015.07 1016.12 1017.18 1018.09 1019.20 1020.23 1021.10 1021.90 1022.80 1023.68 1024.49 1025.13 1025.64 1026.21
1023.14 1023.65 1023.72 1024.14 1024.55 1024.88 1025.14 1025.36 1026.01 1026.13 1025.74 1024.89 1024.10 1022.94 1021.95 1021.74 1021.07 1021.03 1020.84 1020.31 1020.21 1020.15 1019.96 1019.98 1018.85 1017.03 1015.64 1014.34 1013.74 1013.13 1012.72 1011.96 1010.85 1010.42 1010.50 1010.66 1011.01 1011.91 1012.93 1013.98 1014.91 1016.02 1017.03 1017.97 1019.03 1020.00 1020.87 1021.63 1022.38 1023.32 1024.38 1025.03 1025.57 1026.10
1022.79 1022.76 1023.13 1023.75 1024.30 1024.75 1025.11 1025.89 1026.10 1026.03 1025.24 1024.14 1022.96 1022.46 1022.13 1021.75 1021.26 1020.79 1021.00 1020.59 1020.41 1019.84 1019.92 1019.97 1019.28 1018.15 1017.15 1014.98 1014.00 1013.29 1012.88 1012.15 1011.47 1011.05 1010.95 1010.90 1011.07 1011.85 1012.92 1014.01 1014.94 1015.99 1016.93 1017.87 1018.85 1019.84 1020.76 1021.56 1022.29 1023.21 1023.87 1024.63 1025.30 1025.81
1022.14 1022.43 1022.91 1023.32 1024.00 1024.57 1025.32 1025.68 1025.58 1025.06 1024.18 1023.25 1022.53 1021.73 1021.97 1021.72 1021.35 1021.15 1020.95 1020.91 1020.76 1020.32 1020.21 1019.98 1019.99 1018.95 1017.43 1015.57 1014.80 1014.80 1014.04 1013.33 1012.60 1012.16 1011.77 1011.47 1011.35 1012.11 1012.94 1013.83 1014.87 1015.90 1016.81 1017.78 1018.70 1019.69 1020.62 1021.31 1021.91 1022.49 1023.24 1024.13 1024.85 1025.44
1021.53 1022.09 1022.62 1022.98 1023.55 1024.37 1024.80 1025.23 1025.07 1023.88 1023.00 1022.44 1022.09 1021.94 1021.66 1021.25 1021.34 1021.40 1021.17 1021.05 1021.11 1020.84 1020.53 1019.92 1019.13 1018.16 1017.43 1016.36 1016.13 1015.51 1014.90 1014.34 1013.57 1012.71 1012.24 1012.07 1011.91 1012.24 1013.04 1013.98 1014.90 1015.83 1016.64 1017.55 1018.51 1019.25 1020.07 1020.75 1021.16 1021.85 1022.64 1023.58 1023.91 1024.47
1021.60 1022.03 1022.38 1022.85 1023.21 1023.69 1024.08 1024.02 1023.96 1023.30 1022.25 1021.62 1021.68 1021.40 1021.19 1020.59 1020.46 1020.79 1020.69 1020.61 1020.63 1020.50 1019.93 1019.07 1017.95 1017.39 1017.66 1017.17 1016.89 1016.06 1015.49 1014.96 1014.26 1013.11 1012.27 1012.44 1012.50 1012.81 1013.16 1013.71 1014.41 1015.40 1016.40 1017.34 1018.35 1019.21 1019.82 1020.60 1021.03 1021.54 1022.09 1022.75 1023.07 1023.39
1021.62 1021.72 1022.21 1022.96 1023.50 1023.83 1023.61 1023.30 1022.52 1021.46 1021.43 1021.34 1020.96 1021.00 1020.41 1020.26 1020.12 1019.88 1019.74 1019.74 1019.80 1019.13 1018.51 1017.92 1017.54 1017.24 1016.97 1016.68 1016.46 1015.83 1015.26 1014.92 1014.42 1014.06 1013.16 1012.48 1012.80 1013.13 1013.38 1013.81 1014.26 1014.95 1015.65 1016.49 1017.43 1018.60 1019.17 1019.48 1020.15 1020.91 1021.68 1022.27 1022.59 1022.75
1021.00 1021.67 1022.45 1022.97 1022.96 1023.12 1022.99 1022.75 1022.25 1021.72 1021.36 1020.91 1020.99 1020.65 1019.99 1019.43 1018.99 1018.73 1018.86 1018.52 1018.07 1017.56 1017.47 1017.34 1016.89 1016.57 1015.98 1015.69 1015.50 1015.08 1014.76 1014.57 1014.22 1013.61 1013.13 1012.98 1012.62 1012.78 1012.99 1013.28 1013.67 1014.14 1014.74 1015.49 1016.39 1017.38 1018.37 1018.87 1019.65 1020.43 1021.04 1021.63 1022.29 1022.42
1020.96 1021.58 1021.98 1022.12 1022.42 1022.28 1022.13 1022.25 1021.74 1021.62 1020.91 1020.57 1020.59 1020.19 1019.60 1019.00 1018.36 1018.21 1017.74 1017.01 1016.62 1016.48 1016.28 1016.09 1016.04 1015.75 1015.80 1015.72 1015.16 1014.89 1014.67 1014.26 1013.59 1012.78 1012.40 1012.38 1012.26 1012.46 1012.77 1012.92 1013.16 1013.53 1013.95 1014.73 1015.70 1016.47 1017.43 1018.32 1019.22 1019.80 1020.48 1021.24 1021.74 1022.23
1021.01 1021.01 1021.05 1021.14 1021.27 1021.50 1021.61 1021.21 1020.97 1020.65 1020.42 1020.12 1019.80 1019.36 1018.67 1018.19 1017.72 1017.43 1016.68 1016.11 1015.52 1015.31 1015.18 1015.15 1015.42 1015.24 1015.03 1014.77 1014.06 1013.80 1013.42 1013.06 1012.59 1012.16 1011.95 1011.95 1011.86 1012.13 1012.45 1012.55 1012.96 1013.24 1013.57 1014.23 1014.89 1015.53 1016.48 1017.56 1018.66 1019.61 1020.06 1020.74 1021.28 1021.81
1020.37 1020.55 1020.24 1020.22 1020.40 1020.57 1020.45 1020.14 1019.98 1019.76 1019.64 1019.22 1019.02 1018.56 1018.02 1017.81 1017.25 1016.44 1015.75 1015.35 1014.80 1014.25 1014.12 1014.01 1014.28 1014.47 1014.40 1013.80 1013.32 1013.03 1012.63 1012.30 1011.81 1011.24 1011.00 1011.34 1011.42 1011.75 1012.08 1012.23 1012.58 1012.68 1013.15 1013.64 1014.31 1015.02 1015.88 1017.02 1018.04 1018.72 1019.50 1020.39 1020.65 1020.87
1018.94 1019.10 1018.98 1018.65 1018.95 1018.89 1018.88 1019.10 1019.06 1018.82 1018.67 1018.65 1018.38 1017.87 1017.53 1017.23 1016.54 1015.57 1014.76 1014.28 1014.48 1014.56 1014.92 1014.99 1014.84 1014.13 1013.47 1012.99 1012.55 1012.13 1011.84 1011.50 1011.42 1010.82 1010.20 1010.64 1010.73 1011.03 1011.32 1011.57 1011.79 1011.97 1012.33 1012.76 1013.62 1014.42 1015.21 1016.11 1017.06 1017.74 1018.53 1019.42 1020.07 1020.39
1017.77 1017.80 1017.75 1017.30 1017.06 1017.26 1017.59 1017.64 1017.90 1017.77 1017.72 1017.59 1017.13 1017.15 1016.89 1016.36 1015.26 1014.45 1013.91 1013.54 1014.64 1015.02 1015.04 1014.87 1014.94 1014.77 1014.10 1013.35 1012.70 1012.32 1011.90 1011.14 1010.56 1010.19 1010.00 1010.16 1010.12 1010.22 1010.50 1010.63 1010.63 1010.69 1011.52 1012.06 1012.50 1013.23 1013.96 1014.89 1016.00 1016.70 1017.50 1018.09 1018.59 1019.14
1016.56 1016.30 1016.42 1016.61 1016.55 1016.55 1016.64 1016.54 1016.57 1016.41 1016.16 1016.07 1016.05 1015.79 1015.28 1014.57 1013.77 1013.32 1013.74 1014.41 1014.53 1014.37 1014.38 1014.23 1013.94 1013.87 1013.53 1012.89 1012.42 1012.08 1011.65 1010.90 1010.27 1010.16 1010.41 1010.08 1010.00 1009.99 1009.97 1010.19 1010.52 1010.86 1011.11 1011.68 1012.24 1012.80 1013.26 1013.97 1014.84 1015.55 1016.34 1017.09 1017.72 1018.23
1015.67 1015.42 1015.77 1016.18 1016.11 1015.96 1015.67 1015.36 1015.00 1014.53 1014.23 1014.35 1014.40 1014.13 1013.63 1013.15 1012.97 1012.80 1012.89 1013.21 1013.60 1013.77 1013.51 1013.07 1012.75 1012.69 1012.21 1011.70 1011.37 1011.26 1011.01 1010.43 1009.90 1009.53 1009.30 1009.05 1009.14 1009.26 1009.46 1009.69 1009.96 1010.48 1010.82 1011.29 1011.82 1012.10 1012.63 1013.41 1014.06 1014.59 1015.21 1015.92 1016.65 1017.59
1014.78 1014.79 1015.02 1015.19 1015.20 1014.67 1014.09 1013.97 1013.68 1013.63 1013.86 1013.65 1013.52 1013.32 1012.96 1012.64 1012.15 1012.20 1012.42 1012.54 1012.53 1012.34 1012.10 1011.95 1011.71 1011.77 1011.43 1011.01 1010.17 1009.75 1009.61 1009.27 1008.85 1008.51 1008.19 1007.95 1007.53 1007.73 1008.45 1008.95 1009.19 1009.79 1010.32 1010.90 1011.38 1012.25 1013.18 1013.62 1014.38 1015.12 1015.77 1016.27 1016.97 1017.55
1014.11 1014.39 1014.56 1014.62 1014.43 1013.93 1013.74 1013.81 1013.93 1013.84 1013.68 1013.37 1013.13 1012.95 1012.05 1011.29 1010.91 1010.83 1010.95 1010.85 1010.86 1010.72 1010.66 1010.39 1010.20 1010.34 1010.24 1009.92 1009.61 1009.14 1008.29 1008.05 1007.84 1007.50 1007.37 1007.28 1007.31 1007.48 1007.91 1008.38 1008.67 1009.27 1009.79 1010.40 1011.09 1011.87 1012.66 1013.42 1013.91 1014.37 1015.03 1015.57 1016.03 1016.52
1013.58 1013.54 1013.63 1013.70 1013.69 1013.79 1013.85 1013.75 1013.49 1013.18 1012.64 1012.48 1011.95 1011.73 1011.19 1011.10 1009.82 1008.06 1008.13 1008.19 1008.19 1008.13 1007.89 1008.05 1008.01 1007.63 1007.89 1007.70 1007.56 1007.39 1007.00 1006.63 1006.14 1006.35 1006.49 1006.53 1006.63 1006.93 1007.35 1007.84 1008.39 1008.96 1009.63 1010.21 1010.65 1011.32 1011.95 1012.48 1013.08 1013.62 1014.10 1014.63 1015.19 1015.70
1013.31 1013.31 1013.38 1013.39 1013.34 1013.28 1013.17 1013.26 1012.62 1012.07 1011.46 1010.85 1010.33 1010.20 1009.69 1009.21 1007.89 1006.21 1005.69 1005.69 1005.60 1005.51 1005.31 1005.21 1005.23 1005.20 1005.40 1005.44 1005.52 1005.51 1005.78 1005.46 1005.20 1005.22 1005.43 1005.77 1006.13 1006.48 1006.83 1007.32 1007.93 1008.51 1009.15 1009.77 1010.34 1010.99 1011.68 1012.17 1012.56 1013.04 1013.53 1013.93 1014.45 1014.95
Thickness
5323 5324 5324 5326 5327 5329 5331 5333 5336 5339 5341 5345 5348 5351 5352 5354 5357 5362 5372 5375 5384 5406 5430 5440 5442 5459 5471 5498 5526 5539 5552 5562 5573 5576 5581 5576 5578 5573 5572 5572 5568 5567 5561 5551 5548 5541 5519 5527 5522 5511 5497 5490 5484 5476
5321 5322 5323 5324 5325 5326 5328 5330 5333 5336 5339 5343 5346 5349 5350 5351 5354 5359 5371 5373 5381 5393 5427 5437 5447 5457 5466 5482 5490 5526 5545 5559 5570 5575 5575 5575 5573 5567 5572 5562 5561 5557 5558 5549 5546 5532 5521 5517 5507 5500 5492 5481 5474 5466
5320 5321 5321 5322 5323 5324 5326 5328 5331 5334 5337 5341 5344 5347 5349 5350 5353 5357 5368 5375 5385 5406 5434 5440 5454 5469 5476 5485 5497 5515 5543 5545 5559 5561 5576 5574 5572 5569 5568 5567 5559 5549 5548 5542 5539 5517 5508 5500 5494 5486 5480 5472 5464 5457
5317 5319 5319 5319 5321 5323 5324 5326 5329 5332 5336 5340 5344 5346 5348 5350 5353 5357 5368 5375 5378 5394 5410 5454 5462 5473 5484 5495 5505 5514 5526 5538 5547 5561 5572 5575 5571 5559 5566 5566 5563 5555 5550 5534 5523 5506 5498 5490 5482 5475 5467 5461 5457 5452
5315 5316 5317 5317 5318 5320 5322 5325 5327 5331 5335 5339 5343 5346 5348 5351 5355 5361 5370 5374 5380 5388 5409 5436 5454 5478 5486 5502 5512 5517 5523 5533 5551 5564 5571 5567 5562 5563 5557 5562 5553 5554 5542 5539 5525 5509 5506 5485 5476 5470 5465 5460 5455 5449
5313 5314 5315 5315 5316 5318 5320 5323 5326 5330 5335 5338 5342 5346 5349 5352 5357 5367 5380 5376 5384 5385 5398 5435 5463 5476 5491 5508 5518 5522 5529 5537 5548 5564 5560 5558 5555 5564 5566 5560 5551 5548 5546 5543 5523 5509 5498 5484 5476 5471 5466 5461 5456 5452
5310 5311 5311 5312 5313 5316 5318 5321 5325 5329 5334 5338 5342 5346 5350 5353 5358 5370 5382 5384 5382 5385 5397 5430 5460 5476 5493 5504 5521 5527 5530 5540 5550 5555 5558 5561 5560 5563 5566 5558 5551 5546 5541 5531 5515 5505 5491 5483 5479 5473 5468 5461 5457 5454
5307 5307 5308 5309 5310 5313 5316 5319 5323 5327 5332 5337 5342 5347 5351 5356 5363 5372 5378 5382 5386 5392 5404 5431 5460 5475 5494 5504 5525 5529 5537 5542 5546 5550 5552 5560 5554 5561 5559 5559 5549 5543 5534 5521 5511 5506 5499 5491 5482 5476 5470 5467 5463 5460
5303 5302 5302 5304 5306 5309 5313 5316 5320 5325 5330 5336 5342 5347 5353 5360 5372 5381 5378 5380 5388 5396 5418 5435 5458 5475 5486 5502 5519 5530 5537 5545 5541 5551 5554 5557 5559 5563 5563 5556 5549 5544 5535 5526 5516 5506 5498 5494 5488 5482 5479 5476 5473 5469
5298 5298 5298 5299 5300 5303 5308 5313 5317 5322 5328 5334 5341 5350 5358 5367 5367 5375 5389 5391 5394 5405 5412 5434 5447 5466 5480 5508 5521 5533 5538 5542 5546 5544 5546 5555 5564 5558 5564 5558 5552 5547 5541 5534 5522 5508 5504 5499 5495 5492 5488 5484 5481 5477
5294 5294 5294 5294 5295 5297 5302 5308 5313 5318 5323 5333 5342 5351 5357 5360 5371 5384 5385 5393 5406 5417 5425 5443 5450 5468 5481 5504 5523 5528 5536 5538 5545 5544 5551 5557 5561 5561 5562 5556 5550 5546 5539 5532 5526 5520 5513 5510 5505 5500 5493 5489 5487 5480
5290 5290 5290 5290 5291 5292 5296 5302 5308 5313 5323 5328 5333 5340 5349 5364 5373 5376 5389 5399 5406 5429 5439 5444 5450 5463 5478 5493 5515 5524 5533 5535 5543 5540 5549 5557 5570 5568 5561 5554 5548 5547 5542 5537 5529 5523 5517 5511 5507 5502 5497 5494 5490 5483
5286 5286 5286 5287 5287 5289 5291 5296 5302 5308 5314 5323 5332 5339 5348 5359 5364 5377 5391 5419 5416 5407 5415 5424 5445 5467 5487 5498 5515 5524 5531 5533 5533 5542 5554 5568 5574 5570 5563 5555 5548 5547 5544 5538 5530 5522 5518 5513 5507 5504 5500 5497 5493 5485
5283 5283 5283 5284 5284 5286 5288 5291 5296 5300 5308 5320 5327 5337 5352 5365 5376 5388 5391 5397 5395 5403 5409 5418 5442 5468 5496 5507 5515 5523 5521 5526 5534 5543 5561 5575 5572 5571 5565 5557 5553 5550 5544 5539 5532 5525 5520 5514 5509 5504 5500 5496 5494 5489
5279 5279 5279 5281 5282 5283 5285 5288 5292 5295 5303 5313 5321 5334 5357 5372 5373 5372 5385 5396 5408 5411 5412 5417 5444 5461 5494 5503 5511 5516 5517 5529 5543 5561 5569 5576 5574 5571 5565 5559 5555 5551 5547 5542 5535 5528 5523 5518 5512 5507 5503 5499 5496 5491
5273 5274 5277 5278 5279 5280 5281 5283 5284 5288 5294 5307 5320 5336 5356 5360 5374 5378 5384 5395 5403 5407 5413 5414 5435 5465 5487 5505 5510 5520 5527 5531 5553 5562 5566 5569 5571 5568 5563 5559 5557 5554 5550 5546 5539 5533 5528 5523 5519 5513 5505 5501 5498 5494
5269 5274 5274 5274 5273 5273 5274 5275 5278 5283 5293 5307 5327 5337 5345 5353 5363 5377 5376 5388 5394 5407 5406 5413 5427 5444 5449 5499 5511 5518 5521 5532 5546 5554 5558 5566 5570 5567 5562 5558 5556 5553 5550 5546 5541 5536 5530 5525 5522 5514 5510 5505 5501 5498
5267 5267 5269 5269 5267 5266 5265 5267 5274 5282 5293 5311 5320 5336 5337 5346 5356 5364 5373 5379 5386 5397 5403 5414 5415 5428 5452 5497 5501 5495 5507 5520 5532 5541 5549 5558 5565 5564 5561 5558 5555 5552 5550 5546 5542 5537 5532 5528 5524 5521 5517 5510 5505 5501
5261 5261 5261 5263 5263 5262 5263 5264 5269 5286 5300 5311 5318 5321 5330 5342 5346 5352 5363 5371 5375 5385 5394 5409 5425 5439 5447 5473 5474 5486 5499 5508 5520 5534 5544 5551 5559 5561 5558 5554 5551 5549 5548 5545 5542 5540 5536 5532 5531 5528 5522 5515 5514 5510
5252 5253 5255 5255 5256 5258 5259 5264 5270 5279 5292 5309 5310 5316 5324 5340 5349 5349 5359 5367 5373 5380 5393 5409 5434 5448 5442 5452 5463 5478 5488 5500 5512 5529 5543 5545 5550 5552 5555 5555 5555 5551 5547 5544 5539 5532 5534 5530 5531 5529 5526 5521 5520 5518
5244 5248 5248 5245 5243 5247 5252 5258 5273 5290 5295 5298 5306 5309 5324 5332 5340 5350 5359 5366 5371 5386 5402 5422 5429 5438 5448 5455 5462 5476 5488 5496 5507 5517 5531 5543 5545 5544 5548 5549 5551 5550 5550 5547 5545 5538 5533 5539 5536 5532 5527 5524 5523 5522
5244 5242 5240 5239 5244 5246 5251 5256 5264 5277 5284 5292 5293 5301 5314 5329 5342 5353 5358 5366 5378 5398 5409 5418 5427 5437 5448 5457 5465 5478 5486 5493 5501 5514 5514 5525 5542 5546 5549 5552 5554 5555 5555 5554 5551 5546 5541 5542 5538 5534 5531 5528 5522 5523
5240 5240 5241 5244 5244 5248 5256 5258 5268 5269 5279 5288 5292 5296 5309 5323 5339 5347 5354 5373 5389 5403 5413 5420 5424 5435 5444 5450 5461 5471 5479 5489 5502 5517 5528 5533 5541 5544 5547 5551 5553 5556 5559 5557 5554 5551 5546 5541 5535 5536 5533 5528 5526 5524
5236 5243 5247 5250 5253 5252 5256 5263 5272 5279 5284 5289 5293 5298 5313 5325 5338 5343 5354 5374 5395 5406 5414 5420 5421 5430 5441 5451 5464 5473 5484 5495 5505 5516 5525 5530 5536 5540 5544 5549 5550 5554 5556 5555 5555 5556 5552 5546 5536 5533 5533 5527 5522 5521
5244 5244 5249 5248 5251 5256 5259 5269 5277 5283 5277 5293 5296 5303 5313 5320 5326 5340 5356 5376 5392 5405 5413 5421 5424 5430 5439 5456 5466 5475 5486 5495 5506 5518 5528 5530 5536 5539 5542 5547 5550 5554 5555 5557 5555 5554 5551 5544 5539 5538 5533 5524 5527 5529
5248 5247 5252 5258 5261 5267 5271 5267 5272 5279 5287 5287 5295 5306 5311 5311 5318 5334 5363 5382 5385 5391 5395 5400 5409 5426 5444 5458 5469 5479 5489 5498 5504 5516 5529 5532 5537 5540 5543 5547 5551 5555 5558 5560 5559 5556 5553 5548 5541 5543 5538 5532 5525 5527
5245 5247 5258 5273 5281 5284 5281 5285 5285 5288 5285 5286 5301 5300 5302 5299 5317 5348 5368 5379 5374 5374 5385 5398 5405 5413 5428 5442 5457 5469 5480 5496 5507 5516 5525 5530 5538 5543 5548 5552 5558 5562 5561 5562 5563 5562 5561 5557 5550 5549 5544 5541 5538 5535
5252 5264 5259 5272 5278 5285 5278 5287 5285 5287 5295 5301 5302 5298 5302 5313 5334 5354 5352 5351 5356 5366 5376 5389 5404 5414 5426 5439 5451 5462 5473 5490 5504 5511 5516 5527 5534 5540 5547 5552 5555 5555 5561 5562 5564 5562 5563 5561 5556 5554 5549 5544 5539 5536
5257 5270 5271 5260 5271 5279 5283 5288 5295 5306 5312 5310 5304 5308 5316 5330 5337 5345 5351 5352 5356 5367 5381 5395 5406 5416 5430 5443 5454 5462 5474 5488 5500 5511 5522 5533 5538 5542 5545 5550 5554 5556 5559 5560 5557 5562 5565 5562 5560 5558 5554 5550 5545 5537
5261 5272 5268 5268 5269 5281 5296 5300 5304 5306 5301 5304 5308 5312 5316 5324 5336 5339 5340 5348 5359 5373 5386 5395 5406 5417 5430 5443 5458 5469 5480 5494 5506 5518 5529 5538 5549 5551 5548 5549 5555 5555 5557 5558 5559 5556 5549 5552 5547 5544 5542 5540 5535 5531
5265 5267 5267 5271 5274 5288 5291 5289 5286 5288 5290 5294 5299 5301 5317 5328 5331 5339 5344 5355 5366 5378 5388 5400 5411 5423 5434 5446 5456 5468 5484 5495 5507 5521 5530 5538 5543 5544 5548 5549 5553 5554 5555 5555 5555 5554 5553 5548 5548 5546 5543 5540 5538 5536
5263 5267 5269 5269 5277 5276 5275 5277 5281 5286 5293 5294 5302 5304 5312 5311 5323 5353 5364 5375 5386 5397 5410 5417 5428 5444 5451 5459 5466 5476 5488 5503 5517 5522 5529 5535 5540 5543 5546 5549 5550 5550 5550 5550 5552 5550 5550 5549 5547 5545 5543 5539 5537 5535
5255 5259 5261 5266 5270 5273 5276 5274 5284 5288 5295 5304 5311 5312 5317 5320 5335 5370 5383 5393 5403 5413 5426 5438 5448 5454 5462 5470 5477 5485 5491 5504 5516 5523 5529 5532 5535 5539 5544 5547 5547 5549 5549 5550 5548 5547 5543 5544 5545 5543 5540 5539 5536 5533